x

8454049 - Quonset Point, Ri (qptr1) Weather Station

3:12 - Tue 24th Jan 2017 All times are EST. -5 hours from GMT.

  • Wind
    29mph, 38mph gusts
  • Sea Temp 40°f
  • Ar Temp 40°f
  • Sea Pressure 998.9mb
  • 8454049 - Quonset Point, Ri
  • 8454049 - Quonset Point, Ri

More Historic Weather Station data

Upgrade to MSW Pro to gain access to the past 30 days of data for over 8000 Wavebouys and Weather Stations around the globe.

Join Pro

Comparision Forecast

View Surf forecast
   
Ter 01/24 3:12 29 38 mph 998.9mb 40f 40f
3:06 31 38 mph 998.6mb 40f 40f
3:00 32 38 mph 998.8mb 40f 40f
2:54 30 40 mph 998.9mb 40f 40f
2:48 33 40 mph 998.8mb 40f 40f
2:42 31 41 mph 998.9mb 40f 40f
2:36 31 43 mph 999mb 40f 40f
2:30 33 44 mph 999.1mb 40f 40f
2:24 31 43 mph 999.3mb 40f 40f
2:18 33 39 mph 999.5mb 40f 40f
2:12 32 38 mph 999.7mb 40f 40f
2:06 33 43 mph 999.9mb 40f 40f
2:00 32 38 mph 1000.3mb 40f 40f
1:54 33 39 mph 1000.4mb 40f 40f
1:48 32 40 mph 1000.7mb 40f 40f
1:42 32 37 mph 1000.7mb 40f -
1:36 32 38 mph 1000.7mb 40f -
1:30 32 40 mph 1000.9mb 40f 40f
1:24 36 43 mph 1000.9mb 40f 40f
1:18 30 39 mph 1001mb 40f 40f
1:12 32 37 mph 1001.1mb 40f 40f
1:06 31 37 mph 1001.3mb 40f 40f
1:00 33 39 mph 1001.4mb 40f 40f
12:54 32 40 mph 1001.5mb 40f 40f
12:48 31 37 mph 1001.8mb 40f 40f
12:42 32 39 mph 1002mb 40f 40f
12:36 30 37 mph 1002.2mb 40f 40f
12:30 31 36 mph 1002.4mb 40f 40f
12:24 31 39 mph 1002.5mb 40f 40f
12:18 33 40 mph 1002.5mb 40f 40f
12:12 32 38 mph 1002.6mb 40f 40f
12:06 32 38 mph 1002.8mb 40f 40f
12:00 32 37 mph 1002.9mb 40f 39f
Seg 01/23 11:54 32 38 mph 1003mb 40f 40f
11:48 32 37 mph 1003mb 40f 39f
11:42 31 40 mph 1003.4mb 40f 39f
11:36 30 34 mph 1003.6mb 40f 40f
11:30 29 38 mph 1004.1mb 40f 40f
11:24 29 37 mph 1004mb 40f 40f
11:18 31 40 mph 1004.1mb 40f 40f
11:12 28 38 mph 1004mb 40f 40f
11:06 33 38 mph 1004.2mb 40f 40f
11:00 31 37 mph 1004.2mb 40f 40f
10:54 33 40 mph 1004.5mb 40f 40f
10:48 30 37 mph 1004.7mb 40f 40f
10:42 29 34 mph 1004.8mb 40f 40f
10:36 29 38 mph 1004.9mb 40f 40f
10:30 29 39 mph 1004.9mb 40f 40f
10:24 29 36 mph 1005.1mb 40f 40f
10:18 29 36 mph 1005.3mb 40f 40f
10:12 29 36 mph 1005.4mb 40f 40f
10:06 29 33 mph 1005.5mb 40f 40f
10:00 32 39 mph 1005.5mb 40f 40f
9:54 30 36 mph 1005.6mb 40f 40f
9:48 30 36 mph 1005.9mb 40f 40f
9:42 29 34 mph 1006.1mb 40f 40f
9:36 29 36 mph 1006mb 40f 39f
9:30 30 34 mph 1006mb 40f 39f
9:24 30 36 mph 1006mb 40f 39f
9:18 30 37 mph 1006.1mb 40f 39f
9:12 30 33 mph 1006.2mb 40f 39f
9:06 28 33 mph 1006.5mb 40f 39f
9:00 29 34 mph 1006.8mb 40f 39f
8:54 28 36 mph 1007mb 40f 39f
8:48 30 33 mph - - -
8:42 26 30 mph 1007mb 40f 39f
8:36 26 31 mph 1007.1mb 40f 38f
8:30 26 34 mph 1007.3mb 40f 38f
8:24 29 37 mph 1007.3mb 40f 38f
8:18 30 34 mph 1007.3mb 40f 38f
8:12 30 36 mph 1007.1mb 40f 38f
8:06 31 37 mph 1007mb 40f 38f
8:00 30 36 mph 1007.1mb 40f -
7:54 30 34 mph 1007.1mb 40f 38f
7:48 30 38 mph - - -
7:42 25 34 mph 1007.3mb 40f 38f
7:36 30 36 mph 1007.3mb 40f 38f
7:30 30 37 mph 1007.4mb - -
7:24 31 38 mph 1007.5mb 40f 37f
7:18 30 37 mph - - -
7:12 28 36 mph 1007.6mb 40f 37f
7:06 31 39 mph 1007.3mb 40f 37f
7:00 32 38 mph 1007.2mb 40f 37f
6:54 31 36 mph 1007.4mb 40f 38f
6:48 29 37 mph - - -
6:42 31 38 mph 1007.9mb 40f 38f
6:36 29 38 mph 1007.9mb 40f 38f
6:30 29 36 mph 1008mb 40f 38f
6:24 29 34 mph 1008.2mb 40f 38f
6:18 29 34 mph 1008.5mb 40f 37f
6:12 29 36 mph 1008.6mb 40f 37f
6:06 31 37 mph 1008.6mb 40f 38f
6:00 29 38 mph 1008.8mb 40f -
5:54 30 38 mph 1008.8mb 40f 38f
5:48 29 37 mph 1009mb - -
5:42 30 39 mph 1009.1mb 40f 39f
5:36 29 36 mph 1009.1mb 40f 39f
5:30 29 38 mph 1009.2mb 40f -
5:24 30 37 mph 1009.2mb 40f 39f
5:18 32 38 mph - - -
5:12 30 37 mph 1009.4mb 40f 39f
5:06 32 38 mph 1009.5mb 40f 39f
5:00 29 36 mph 1009.5mb 40f 39f
4:54 29 34 mph 1009.6mb 40f 39f
4:48 29 37 mph - - -
4:42 28 33 mph 1009.8mb 40f 39f
4:36 29 33 mph 1010mb 40f 39f
4:30 29 34 mph 1010.1mb 40f 39f
4:24 28 34 mph 1010.3mb 40f 39f
4:18 29 33 mph 1010.4mb 40f 39f
4:12 31 37 mph 1010.5mb 40f 39f
4:06 30 36 mph 1010.6mb 40f 39f
4:00 31 36 mph 1010.7mb 40f 39f
3:54 29 33 mph 1010.7mb 40f 39f
3:48 30 34 mph 1010.7mb 40f 39f
3:42 28 36 mph 1010.7mb 40f 39f
3:36 26 34 mph 1010.8mb 40f 39f
3:30 29 37 mph 1010.9mb 40f 39f
3:24 29 34 mph 1011mb 40f 39f
3:18 24 38 mph 1011.2mb 40f 39f
3:12 29 33 mph 1011.3mb 40f 39f
3:06 26 32 mph 1011.3mb 40f 39f
3:00 24 28 mph 1011.4mb 40f 39f
2:54 26 31 mph 1011.4mb 40f 39f
2:48 23 28 mph 1011.5mb 40f 39f
2:42 25 30 mph 1011.7mb 40f 39f
2:36 24 29 mph 1011.7mb 40f 39f
2:30 25 30 mph 1011.8mb - -
2:24 22 28 mph 1011.7mb 40f 38f
2:18 23 29 mph 1011.6mb 40f 39f
2:12 24 29 mph 1011.6mb 40f 39f
2:06 25 36 mph 1011.7mb 40f 38f
2:00 28 32 mph 1011.7mb 40f 38f
1:54 26 33 mph 1011.5mb 40f 39f
1:48 29 32 mph 1011.5mb 40f 38f
1:42 28 32 mph 1011.6mb 40f 38f
1:36 30 33 mph 1011.8mb 40f 38f
1:30 25 30 mph 1012.1mb 40f 38f
1:24 23 30 mph 1012.5mb 40f 38f
1:18 22 34 mph 1012.5mb 40f 38f
1:12 29 34 mph 1012.3mb 40f 38f
1:06 29 32 mph 1012.3mb 40f 38f
1:00 24 34 mph 1012.6mb 40f 38f
12:54 26 32 mph 1012.7mb 40f 38f
12:48 29 37 mph 1012.7mb 40f 37f
12:42 32 36 mph 1012.6mb 40f 38f
12:36 29 36 mph 1012.8mb 40f 38f
12:30 24 29 mph 1012.9mb 40f 38f
12:24 23 30 mph 1012.9mb 40f 38f
12:18 28 33 mph 1013.1mb 40f 38f
12:12 25 32 mph 1013.4mb 40f 38f
12:06 24 28 mph 1013.7mb 40f 38f
12:00 24 28 mph 1014.1mb 40f 38f
11:54 21 25 mph 1014.2mb 40f 38f
11:48 24 28 mph 1014.3mb 40f 38f
11:42 23 28 mph 1014.4mb 40f 38f
11:36 21 30 mph 1014.3mb 40f 39f
11:30 29 33 mph 1014.1mb 40f 38f
11:24 23 29 mph 1014.1mb 40f 38f
11:18 26 31 mph 1014.3mb 40f 38f
11:12 26 31 mph 1014.3mb 40f 38f
11:06 29 33 mph 1014.2mb 40f 39f
11:00 28 31 mph 1014.1mb 40f 38f
10:54 25 29 mph 1014.1mb 40f 39f
10:48 25 30 mph 1014.2mb 40f 39f
10:42 24 31 mph 1014.2mb 40f 39f
10:36 29 33 mph 1014.4mb 40f 39f
10:30 26 33 mph 1014.5mb 40f 39f
10:24 25 30 mph 1014.7mb 40f 38f
10:18 26 32 mph 1014.9mb 40f 39f
10:12 22 29 mph 1015mb 40f 39f
10:06 25 29 mph 1014.9mb 40f 38f
10:00 26 30 mph 1014.7mb 40f 39f
9:54 23 26 mph 1015mb 40f 39f
9:48 22 31 mph 1015.1mb 40f 39f
9:42 23 31 mph 1015mb 40f 39f
9:36 25 32 mph 1015mb 40f 39f
9:30 24 29 mph 1015.1mb 40f 39f
9:24 23 25 mph 1015mb 40f 39f
9:18 22 26 mph 1015.2mb 40f 38f
9:12 21 26 mph 1015.3mb 40f 38f
9:06 22 25 mph 1015.4mb 40f 38f
9:00 21 25 mph 1015.4mb 40f 38f
8:54 20 23 mph 1015.5mb 40f 38f
8:48 22 26 mph 1015.4mb 40f 38f
8:42 22 25 mph 1015.3mb 40f 38f
8:36 22 24 mph 1015.2mb 40f 38f
8:30 22 28 mph 1015.2mb 40f 38f
8:24 22 26 mph 1015.2mb 40f 38f
8:18 21 26 mph 1015.3mb 40f 38f
8:12 24 29 mph 1015.1mb 40f 37f
8:06 23 29 mph 1014.8mb 40f 38f
8:00 23 29 mph 1014.7mb 40f 38f
7:54 22 28 mph 1014.7mb 40f 38f
7:48 25 31 mph 1014.4mb 40f 38f
7:42 22 24 mph 1014.5mb 40f 38f
7:36 24 28 mph 1014.5mb 40f 38f
7:30 21 28 mph 1014.6mb 40f 38f
7:24 21 29 mph 1014.7mb 40f 38f
7:18 22 28 mph 1014.7mb 40f 38f
7:12 23 26 mph 1014.9mb 40f 38f
7:06 22 29 mph 1014.8mb 40f 38f
7:00 24 28 mph 1014.5mb 40f 38f
6:54 22 28 mph 1014.6mb 40f 38f
6:48 22 25 mph 1014.5mb 40f 38f
6:42 23 28 mph 1014.6mb 40f 38f
6:36 22 28 mph 1014.6mb 40f 38f
6:30 23 26 mph 1014.8mb 40f -
6:24 22 28 mph 1014.8mb 40f 38f
6:18 22 28 mph 1014.9mb 40f 38f
6:12 22 24 mph 1014.7mb 40f 38f
6:06 22 25 mph 1014.5mb 40f 38f
6:00 20 29 mph 1014.5mb 40f 38f
5:54 25 30 mph 1014.1mb 40f 38f
5:48 24 26 mph 1014.2mb 40f 38f
5:42 24 29 mph 1014.1mb 40f 39f
5:36 24 29 mph 1014.1mb 40f 39f
5:30 25 29 mph 1014.2mb 40f 38f
5:24 21 30 mph 1014.5mb 40f 39f
5:18 16 21 mph 1014.7mb 40f 38f
5:12 22 26 mph 1014.7mb 40f 38f
5:06 24 28 mph 1014.4mb 40f 38f
5:00 20 25 mph 1014.4mb 40f -
4:54 21 30 mph 1014.2mb 40f 39f
4:48 26 30 mph 1014mb 40f 39f
4:42 23 28 mph 1013.8mb 40f 39f
4:36 23 28 mph 1013.6mb 40f 39f
4:30 22 28 mph 1013.3mb 40f 39f
4:24 24 30 mph 1013.2mb 40f 40f
4:18 25 32 mph 1012.9mb 40f 40f
4:12 25 31 mph 1012.6mb 40f 40f
4:06 24 32 mph 1012.5mb 40f 40f
4:00 29 34 mph 1012.3mb 40f 40f
3:54 25 32 mph 1012.5mb 40f 40f
3:48 25 30 mph 1012.9mb 40f 40f
3:42 23 29 mph 1013.1mb 40f 40f
3:36 25 31 mph 1013.3mb 40f 40f
3:30 24 26 mph 1013.5mb 40f 40f
3:24 23 28 mph 1014mb 40f 40f
3:18 18 23 mph 1014.1mb 40f 40f
3:12 22 26 mph 1014mb 40f 41f
3:06 23 29 mph 1013.9mb 40f 41f
3:00 24 30 mph 1013.9mb 40f 41f
2:54 23 28 mph 1013.9mb 40f 41f
2:48 21 26 mph 1013.9mb 40f 41f
2:42 22 25 mph 1013.9mb 40f 41f
2:36 23 30 mph 1013.8mb 40f 41f
2:30 24 30 mph 1013.7mb 40f 41f
2:24 23 30 mph 1013.5mb 40f 41f
2:18 21 24 mph 1013.5mb 40f 41f
2:12 22 26 mph 1013.4mb 40f 41f
2:06 24 33 mph 1013.4mb 40f 41f
2:00 24 30 mph - - -
1:54 22 25 mph 1013.4mb 40f 41f
1:48 23 25 mph 1013.4mb 40f 41f
1:42 20 23 mph 1013.4mb 40f 41f
1:36 22 28 mph 1013.2mb 40f 41f
1:30 23 28 mph 1013.1mb 40f 41f
1:24 23 26 mph 1013.2mb 40f 41f
1:18 18 22 mph 1013.3mb 40f 41f
1:12 20 24 mph 1013.2mb 40f 41f
1:06 21 24 mph 1013.2mb 40f 41f
1:00 21 24 mph 1013.1mb 40f 41f
12:54 21 24 mph 1013.1mb 40f 41f
12:48 20 23 mph 1013.1mb 40f 41f
12:42 18 24 mph 1013mb - -
12:36 18 22 mph 1012.8mb - -
12:30 18 22 mph 1012.9mb - -
12:24 18 22 mph 1012.9mb 40f 41f
12:18 21 28 mph 1012.9mb 40f 41f
12:12 22 24 mph 1012.8mb 40f 41f
12:06 18 24 mph 1012.9mb 40f 41f
12:00 21 24 mph 1012.8mb 40f 41f
Dom 01/22 11:54 22 28 mph 1012.8mb 40f 41f
11:48 21 24 mph 1012.9mb 40f 41f
11:42 20 23 mph 1013mb 40f 41f
11:36 18 23 mph 1013mb 40f 41f
11:30 21 23 mph 1012.9mb 40f 41f
11:24 17 22 mph 1012.8mb 40f 41f
11:18 18 23 mph 1012.7mb 40f 41f
11:12 21 23 mph 1012.6mb 40f 42f
11:06 20 23 mph 1012.6mb 40f 42f
11:00 18 23 mph 1012.5mb 40f 42f
10:54 21 26 mph 1012.4mb 40f 42f
10:48 21 25 mph 1012.5mb 40f 42f
10:42 21 23 mph 1012.7mb 40f 42f
10:36 22 25 mph 1012.7mb 40f 42f
10:30 20 23 mph 1012.9mb 40f 42f
10:24 21 23 mph 1012.8mb 40f 42f
10:18 20 24 mph 1012.8mb 40f 42f
10:12 20 24 mph 1012.7mb 40f 42f
10:06 18 23 mph 1012.7mb 40f 41f
10:00 20 24 mph 1012.6mb 40f 41f
9:54 21 24 mph 1012.4mb 40f 41f
9:48 18 22 mph 1012.5mb - -
9:42 18 22 mph 1012.5mb 40f 41f
9:36 18 22 mph 1012.4mb 40f 41f
9:30 16 20 mph 1012.5mb 40f 41f
9:24 17 21 mph 1012.6mb 40f 41f
9:18 17 20 mph - - -
9:12 17 21 mph 1012.4mb 40f 41f
9:06 18 22 mph 1012.3mb 40f 41f
9:00 18 21 mph - 40f 42f
8:54 17 22 mph - 40f 42f
8:48 17 20 mph 1012.3mb - -
8:42 15 20 mph 1012.4mb 40f 42f
8:36 18
mph
1012.4mb 40f 42f
8:30 15 17 mph 1012.5mb 40f -
8:24 16 20 mph 1012.4mb 40f -
8:18 16 20 mph - - -
8:12 17 20 mph 1012.1mb 40f 42f
8:06 17 20 mph 1011.9mb 40f 42f
8:00 17 20 mph 1012mb 40f 42f
7:54 17 18 mph 1012mb 40f 42f
7:48 16 21 mph 1011.7mb - -
7:42 17 20 mph 1011.5mb 40f 42f
7:36 17 21 mph 1011.4mb 40f 42f
7:30 18 22 mph 1011.3mb 40f 43f
7:24 20 22 mph 1011.3mb 40f 43f
7:18 21 22 mph - - -
7:12 18 23 mph 1011.3mb 40f 43f
7:06 18 22 mph 1011.1mb 40f 43f
7:00 20 22 mph 1010.7mb 40f 43f
6:54 17 20 mph 1010.8mb 40f 43f
6:48 16 18 mph 1010.9mb - -
6:42 16 18 mph 1011mb 40f -
6:36 16 20 mph 1011.1mb 40f -
6:30 17 20 mph 1011.1mb 40f 44f
6:24 17 21 mph 1011mb 40f 44f
6:18 18 22 mph - - -
6:12 20 22 mph 1010.8mb 40f 44f
6:06 18 21 mph 1010.8mb 40f 44f
6:00 17 20 mph 1010.9mb 40f 44f
5:54 18 21 mph 1010.8mb 40f 44f
5:48 17 21 mph - 40f -
5:42 18 21 mph - 40f 44f
5:36 18 21 mph - 40f 45f
5:30 20 22 mph 1010.1mb 40f 45f
5:24 16 18 mph 1009.9mb 40f 44f
5:18 14 20 mph - - -
5:12 16 22 mph 1009.6mb 40f 45f
5:06 15 17 mph 1009.5mb 40f 45f
5:00 15 18 mph 1009.2mb 40f 44f
4:54 16 21 mph 1009mb 40f 45f
4:48 16 18 mph 1009.1mb - -
4:42 13 14 mph 1009.2mb 40f 44f
4:36 13 17 mph 1009.3mb 40f 44f
4:30 16 17 mph 1009mb 40f 45f
4:12 17 20 mph 1009mb 40f 45f
4:06 17 20 mph 1009mb 40f 45f
4:00 15 16 mph 1009.2mb 40f 45f
3:54 14 15 mph 1009.3mb 40f 45f
3:48 11 14 mph 1009.5mb 40f 45f
3:42 13 15 mph 1009.4mb 40f 45f
3:36 14 17 mph 1009.3mb 40f 46f
3:30 15 20 mph 1009.3mb 40f 46f
3:24 13 15 mph 1009.2mb 40f 45f
3:18 13 14 mph 1008.9mb 40f 45f
3:12 13 14 mph 1008.7mb 40f 45f
3:06 14 15 mph 1008.6mb 40f 45f
3:00 15 17 mph 1008.5mb 40f 46f
2:54 16 18 mph 1008.4mb 40f 46f
2:48 15 18 mph 1008.2mb 40f 47f
2:42 16 17 mph 1008.2mb 40f 47f
2:36 15 17 mph 1008.2mb 40f 47f
2:30 13 14 mph 1008.2mb 40f 47f
2:24 11 13 mph 1008.2mb 40f 47f
2:18 11 13 mph 1008.2mb 40f 48f
2:12 10 11 mph 1008.1mb 40f 47f
2:06 10 11 mph 1008mb 40f 47f
2:00 9 11 mph 1008.1mb 40f 46f
1:54 11 13 mph 1008mb 40f 47f
1:48 11 13 mph 1007.9mb 40f 47f
1:42 11 14 mph 1007.9mb 40f 47f
1:36 13 14 mph 1007.9mb 40f 47f
1:30 10 11 mph 1008mb 40f 46f
1:24 8 9 mph 1008.1mb 40f 46f
1:18 8 9 mph 1008.1mb 40f 46f
1:12 9 10 mph 1008.1mb 40f 46f
1:06 9 10 mph 1008.1mb 40f 46f
1:00 10 11 mph 1008.2mb 40f -
12:54 9 11 mph 1008.2mb 40f 47f
12:48 10 13 mph 1008mb 40f 46f
12:42 11 14 mph 1008mb 40f 46f
12:36 13 15 mph 1007.9mb 40f 46f
12:30 13 15 mph 1007.9mb - -
12:24 13 14 mph 1008.2mb 40f 46f
12:18 13 15 mph 1008.2mb 40f 46f
12:12 10 11 mph 1008.4mb 40f 46f
12:06 9 11 mph 1008.4mb 40f 46f
12:00 11 13 mph 1008.4mb 40f 45f
11:54 10 11 mph 1008.5mb 40f 45f
11:48 9 13 mph 1008.6mb 40f 45f
11:42 11 14 mph 1008.4mb 40f 45f
11:36 10 11 mph 1008.5mb 40f 46f
11:30 9 11 mph 1008.6mb 40f 46f
11:24 10 11 mph 1008.6mb 40f 45f
11:18 9 10 mph 1008.6mb 40f 45f
11:12 9 10 mph 1008.7mb 40f 45f
11:06 7 10 mph 1008.7mb 40f 45f
11:00 7 9 mph 1008.7mb 40f 45f
10:54 8 9 mph 1008.8mb 40f 44f
10:48 6 7 mph 1008.9mb 40f 44f
10:42 7 8 mph 1009mb 40f 44f
10:36 7
mph
1009mb 40f 44f
10:30 6 8 mph 1009mb 40f 43f
10:24 6 8 mph 1008.9mb 40f 43f
10:18 8 10 mph 1008.9mb 40f 42f
10:12 8 11 mph 1008.8mb 40f 41f
10:06 9 10 mph 1008.8mb 40f 41f
10:00 8 10 mph 1008.7mb 40f 41f
9:54 8 10 mph 1008.7mb 39f 41f
9:48 8 10 mph 1008.7mb 39f 41f
9:42 6 7 mph 1008.8mb 39f 41f
9:36 6
mph
1008.8mb 39f 40f
9:30 3 6 mph 1008.8mb 39f 40f
9:24 6
mph
1008.7mb 39f 40f
9:18 3 6 mph 1008.9mb 39f 40f
9:12 2 6 mph 1009mb 39f 39f
9:06 5 6 mph 1008.9mb 39f 39f
9:00 2
mph
1009mb 39f 39f
8:54 2 3 mph 1009mb 39f 39f
8:48 1 6 mph 1009.1mb 39f 40f
8:42 3 7 mph - 39f 39f
8:36 7 10 mph - 39f 39f
8:30 7 9 mph 1008.6mb 40f 39f
8:24 7 10 mph 1008.6mb 40f 39f
8:18 9 13 mph 1008.5mb 40f 39f
8:12 10 13 mph 1008.5mb 40f 39f
8:06 8 10 mph 1008.5mb 39f 39f
8:00 8 9 mph 1008.6mb 40f 39f
7:54 6
mph
1008.6mb 40f 39f
7:48 6 7 mph 1008.6mb 40f 39f
7:42 6 7 mph 1008.6mb 40f 38f
7:36 6
mph
1008.6mb 40f 38f
7:30 5 6 mph 1008.6mb 40f 39f
7:24 5
mph
1008.7mb 40f 38f
7:18 5
mph
1008.6mb 40f 38f
7:12 2 3 mph 1008.7mb 40f 38f
7:06 1
mph
1008.6mb 40f 38f
7:00  -  3 mph 1008.5mb 40f 39f
6:54 3 6 mph 1008.5mb 40f 39f
6:48 6
mph
1008.4mb 40f 39f
6:42 5
mph
1008.3mb 40f 39f
6:36 3
mph
1008.3mb 40f 39f
6:30 2 3 mph 1008.3mb 40f 39f
6:24  -  1 mph 1008.3mb 40f 39f
6:18 1 2 mph 1008.3mb 40f 39f
6:12 2 3 mph 1008.1mb 40f 39f
6:06 3
mph
1008mb 40f 39f
6:00 2
mph
1007.9mb 40f 39f
5:54 1 3 mph 1007.8mb 40f 39f
5:48 3
mph
1007.8mb 40f 39f
5:42  -  2 mph 1007.9mb 40f 39f
5:36 2
mph
1007.9mb 40f 39f
5:30 1 2 mph 1007.8mb 40f 39f
5:24  -  1 mph 1007.6mb 40f 39f
5:18 1
mph
1007.6mb 40f 39f
5:12  -  1 mph 1007.6mb 40f 39f
5:06 1
mph
1007.5mb 40f 39f
5:00  -  3 mph 1007.4mb 40f 39f
4:54 5
mph
1007.6mb 40f 39f
4:48 6
mph
1007.7mb 40f 39f
4:42 5 9 mph 1007.5mb 40f 39f
4:36 8
mph
1007.5mb 40f 39f
4:30 7 8 mph 1007.3mb 40f -
4:24 6 7 mph 1007.4mb 40f 39f
4:18 5 6 mph 1007.3mb 40f 39f
4:12 3
mph
1007.3mb 40f 39f
4:06 1 6 mph 1007.1mb 40f 39f
4:00 6 7 mph 1007.5mb 40f 39f
3:54 5
mph
1007.5mb 40f 39f
3:48 1 3 mph 1007.4mb 40f 39f
3:42 2 6 mph 1007.6mb 40f 39f
3:36 6 8 mph 1007.7mb 40f 40f
3:30 6
mph
1007.6mb 40f 40f
3:24 6 9 mph 1007.7mb 40f 40f
3:18 7
mph
1007.6mb 40f 40f
3:12 7 10 mph 1007.5mb 40f 40f
3:06 10
mph
1007.6mb 40f 40f
3:00 7 8 mph 1007.7mb 40f 40f
2:54 7
mph
1007.8mb 40f 40f
2:48 6
mph
1007.8mb 40f 40f
2:42 5 9 mph 1007.9mb 40f 40f
2:36 9
mph
1008mb 40f 40f
2:30 5 6 mph 1008mb 40f 40f
2:24 2 3 mph 1008.1mb 40f 40f
2:18 1 2 mph 1008.1mb 40f 40f
2:12 2 3 mph 1008.1mb 40f 40f
2:06 3
mph
1008.1mb 40f 40f
2:00 3 5 mph 1008.1mb 40f 40f
1:54 3
mph
1008.1mb 40f 40f
1:48 2 3 mph 1008.1mb 40f 40f
1:42 3 5 mph 1008.1mb 40f -
1:36 5 6 mph 1008.2mb 40f -
1:30 5 6 mph 1008.1mb 40f 40f
1:24 6
mph
1008.1mb 40f 40f
1:18 6 7 mph 1007.9mb 40f 40f
1:12 6 7 mph 1007.8mb 40f 40f
1:06 5 7 mph 1007.8mb 40f 41f
1:00 6 8 mph - - -
12:54 7 8 mph 1007.6mb 40f 41f
12:48 7 8 mph 1007.6mb 40f 41f
12:42 6 7 mph 1007.8mb 40f 41f
12:36 6 7 mph 1007.9mb 40f 41f
12:30 6 9 mph 1007.9mb 40f 41f
12:24 9 10 mph 1007.9mb 40f 41f
12:18 6
mph
1007.9mb 40f 41f
12:12 6 8 mph 1007.9mb 40f 41f
12:06 7 9 mph 1007.9mb 40f 41f
12:00 8
mph
1007.8mb 40f 41f
Sáb 01/21 11:54 7 8 mph 1007.8mb 40f 41f
11:48 8
mph
1008mb 40f 41f
11:42 7
mph
1007.9mb 40f 41f
11:36 6 7 mph 1007.9mb 40f 41f
11:30 6
mph
1007.9mb 40f 41f
11:18 6
mph
1008.1mb 40f 41f
11:12 6
mph
1008.1mb 40f 42f
11:06 6
mph
1008.1mb 40f 42f
11:00 6 7 mph 1008.2mb 40f 42f
10:54 7 8 mph 1008.2mb 40f 42f
10:48 7
mph
1008.2mb 40f 41f
10:42 6
mph
1008.2mb 40f 41f
10:36 6
mph
1008.2mb 40f 41f
10:30 5
mph
1008.1mb 40f 41f
10:24 6
mph
1008.2mb 40f 42f
10:18 6
mph
1008.2mb 40f 42f
10:12 5 6 mph 1008.2mb 40f 42f
10:06 5 8 mph 1008.2mb 40f 42f
10:00 7 9 mph 1008.2mb - -
9:54 8 9 mph 1008.3mb 40f 42f
9:48 8 9 mph 1008.3mb 40f 42f
9:42 7 9 mph 1008.2mb 40f 42f
9:36 8 10 mph 1008.3mb 40f 42f
9:30 9 11 mph 1008.3mb 40f -
9:24 9 11 mph 1008.4mb 40f 42f
9:18 9 11 mph 1008.5mb 40f 42f
9:12 10 13 mph 1008.6mb 40f 42f
9:06 9 10 mph 1008.6mb 40f 42f
9:00 9 11 mph 1008.6mb - -
8:54 10
mph
1008.7mb 40f 42f
8:48 10 11 mph 1008.6mb - -
8:42 8 9 mph 1008.7mb 40f 42f
8:36 8 9 mph 1008.7mb 40f 42f
8:30 8 9 mph 1008.7mb 40f -
8:24 8 10 mph 1008.7mb 40f 42f
8:18 7 9 mph - - -
8:12 8 10 mph 1008.8mb 40f 42f
8:06 9
mph
1008.8mb 40f 42f
8:00 7 8 mph 1008.8mb - -
7:54 8 9 mph 1008.8mb 40f 42f
7:48 6 7 mph - - -
7:42 6
mph
1008.8mb 40f 41f
7:36 6 7 mph 1008.8mb 40f 41f
7:30 6 8 mph 1008.8mb 40f 41f
7:24 7 8 mph 1008.7mb 40f 41f
7:18 8 11 mph 1008.7mb - -
7:12 10 13 mph 1008.8mb 40f 41f
7:06 10 13 mph 1008.7mb 40f 42f
7:00 10 11 mph 1008.7mb 40f 42f
6:54 10 11 mph 1008.7mb 40f 41f
6:48 11 13 mph 1008.8mb - -
6:42 10 11 mph 1008.8mb 40f -
6:36 10 11 mph 1008.7mb 40f -
6:30 11 13 mph 1008.7mb 40f 41f
6:24 10 13 mph 1008.6mb 40f 41f
6:18 13 14 mph - - -
6:12 13 14 mph 1008.6mb 40f 41f
6:06 13 14 mph 1008.6mb 40f 41f
6:00 11 13 mph 1008.5mb 40f 41f
5:54 11 13 mph 1008.5mb 40f 41f
5:48 9 11 mph 1008.4mb - -
5:42 9 10 mph 1008.3mb 40f -
5:36 9 11 mph 1008.4mb 40f -
5:30 10
mph
1008.4mb - -
5:24 10 11 mph 1008.5mb 40f 43f
5:18 11
mph
- - -
5:12 11
mph
1008.6mb 40f 43f
5:06 11
mph
1008.6mb 40f 43f
5:00 11 13 mph 1008.5mb 40f 44f
4:54 13
mph
1008.5mb 40f 43f
4:48 11 13 mph 1008.5mb - -
4:42 11 13 mph 1008.4mb 40f 44f
4:36 11 13 mph 1008.2mb 40f 43f
4:30 11 13 mph 1008.1mb 40f 44f
4:24 11 13 mph 1008mb 40f 44f
4:18 10
mph
1008.1mb 40f 44f
4:12 8 10 mph 1008mb 40f 46f
4:06 9 10 mph 1008mb 40f 45f
4:00 8 10 mph 1008mb 40f 46f
3:54 9 10 mph 1007.9mb 40f 49f
3:48 7 10 mph 1007.8mb 40f 49f
3:42 9 13 mph 1007.8mb 40f 49f
3:36 11 13 mph 1007.9mb 40f 50f
3:30 10 13 mph 1007.9mb 40f 49f
3:24 11 13 mph 1007.9mb 40f 50f
3:18 10 13 mph 1007.8mb 40f 49f
3:12 11 14 mph 1007.8mb 40f 51f
3:06 9 10 mph 1007.9mb 40f 49f
3:00 7 9 mph 1007.9mb 40f 49f
2:54 8 10 mph 1007.8mb 40f 50f
2:48 8 11 mph 1007.8mb 40f 49f
2:42 10 11 mph 1007.9mb 40f 48f
2:36 10
mph
1007.8mb 40f 49f
2:30 9 10 mph 1007.9mb 40f 48f
2:24 8 9 mph 1008mb 40f 48f
2:18 8 10 mph 1008mb 40f 49f
2:12 9 10 mph 1008.1mb 40f 48f
2:06 9 10 mph 1008.1mb 40f 47f
2:00 9 10 mph 1008mb 40f 47f
1:54 10 13 mph 1008.2mb 40f 47f
1:48 11 13 mph 1008.2mb 40f 47f
1:42 9 10 mph - 40f 47f
1:36 10 11 mph - 40f 46f
1:30 10 13 mph 1008.6mb 40f 46f
1:24 10 13 mph 1008.5mb 40f 45f
1:18 10 13 mph 1009mb 40f 45f
1:12 11 13 mph 1009mb 40f 44f
1:06 9 11 mph 1008.8mb 40f 44f
1:00 10
mph
1009.1mb 40f 44f
12:54 10
mph
1009.3mb 40f 44f
12:48 9 10 mph 1009.3mb 40f 43f
12:42 8 10 mph 1009.2mb 40f 44f
12:36 10 11 mph 1009.3mb 40f 44f
12:30 9
mph
1009.3mb 40f 43f
12:24 9
mph
1009.2mb 40f 44f
12:18 7 8 mph 1009.3mb 40f 43f
12:12 8
mph
1009.4mb 40f 43f
12:06 7 9 mph 1009.5mb 40f 44f
12:00 8 9 mph 1009.6mb 40f 44f
11:54 8 9 mph 1009.7mb 40f 43f
11:48 9 10 mph 1009.8mb 40f 43f
11:42 8 9 mph 1009.9mb 40f 43f
11:36 9 10 mph 1009.9mb 40f 43f
11:30 9 14 mph 1010.2mb 40f 43f
11:24 10 13 mph 1010.5mb 40f 43f
11:18 10 11 mph 1010.5mb 40f 43f
11:12 9 11 mph 1010.7mb 40f 43f
11:06 10 13 mph 1010.6mb 40f 43f
11:00 10 11 mph 1010.7mb 40f 43f
10:54 9 11 mph 1010.8mb 40f 43f
10:48 10 13 mph 1011mb 40f 43f
10:42 11 13 mph 1011mb 40f 43f
10:36 10 11 mph 1011.1mb 40f 43f
10:30 8 9 mph 1011.2mb 40f 42f
10:24 7
mph
1011.1mb 40f 43f
10:18 7 10 mph 1011.3mb 40f 43f
10:12 8 10 mph 1011.5mb 40f 43f
10:06 8 10 mph 1011.7mb 40f 42f
10:00 8
mph
1011.6mb 40f 42f
9:54 8
mph
1011.4mb 40f 42f
9:48 7
mph
1011.3mb 40f 42f
9:42 6 9 mph 1011.1mb 40f 42f
9:36 9 10 mph 1011.1mb 40f 42f
9:30 8 11 mph 1011.1mb 40f 42f
9:24 11 14 mph 1011.2mb 40f 42f
9:18 13 14 mph 1011.2mb 40f 42f
9:12 14 15 mph 1011.1mb 40f 42f
9:06 13 14 mph 1011.2mb 40f 42f
9:00 11 14 mph 1011.2mb 40f 42f
8:54 11 14 mph 1011.3mb 40f 42f
8:48 10 11 mph 1011.5mb 40f 42f
8:42 7 8 mph 1011.4mb 40f 42f
8:36 8 9 mph 1011.3mb 40f 42f
8:30 8
mph
1011.3mb 40f 42f
8:24 6 8 mph 1011.4mb 40f 42f
8:18 7 8 mph 1011.6mb 40f 42f
8:12 8 9 mph 1011.7mb 40f 42f
8:00 7 8 mph 1012mb 40f -
7:54 7 8 mph 1011.9mb 40f 42f
7:48 6 7 mph 1011.9mb 40f 42f
7:42 6
mph
1011.8mb 40f 42f
7:36 5
mph
1011.6mb 40f 42f
7:30 3 5 mph 1011.4mb 40f 42f
7:24 5 6 mph 1011.4mb 40f 42f
7:18 6 7 mph 1011.5mb 40f 42f
7:12 7 8 mph 1011.6mb 40f 42f
7:06 7 8 mph 1011.5mb 40f 42f
7:00 7 8 mph 1011.5mb 40f 42f
6:54 6 7 mph 1011.6mb 40f 42f
6:48 6
mph
1011.6mb 40f 42f
6:42 5 6 mph 1011.6mb 40f 41f
6:36 6 7 mph 1011.6mb 40f 42f
6:30 7
mph
1011.6mb 40f 41f
6:24 6 7 mph 1011.6mb 40f 41f
6:18 7 8 mph 1011.6mb 40f 41f
6:12 7 8 mph 1011.6mb 40f 41f
6:06 6 7 mph 1011.5mb 40f 41f
6:00 6 7 mph 1011.5mb 40f 41f
5:54 7
mph
1011.5mb 40f 41f
5:48 6 7 mph 1011.4mb 40f 41f
5:42 5 6 mph 1011.4mb 40f 41f
5:36 5 6 mph 1011.4mb 40f 41f
5:30 6
mph
1011.4mb 40f 41f
5:24 5 6 mph 1011.5mb 40f 41f
5:18 5
mph
1011.5mb 40f 41f
5:12 3 5 mph 1011.5mb 40f 41f
5:06 3
mph
1011.6mb 40f 40f
5:00 1 2 mph 1011.6mb 40f 40f
4:54 1 2 mph 1011.7mb 40f 40f
4:48 1
mph
1011.8mb 40f 40f
4:42 1 2 mph 1011.9mb 40f 40f
4:36 1
mph
1011.9mb 40f 40f
4:30 2
mph
1011.9mb 40f 40f
4:24 1 2 mph 1011.9mb 40f 40f
4:18  -  1 mph 1012mb 40f 40f
4:12 1
mph
1012.1mb 40f 40f
4:06 1 2 mph 1012.1mb 40f 40f
4:00 1 2 mph 1012.1mb 40f 40f
3:54 2
mph
1012.2mb 40f 40f
3:48 2 5 mph 1012.3mb 40f 40f
3:42 3 5 mph 1012.3mb 40f 40f
3:36 2 3 mph 1012.4mb 40f 40f
3:30 2 3 mph 1012.4mb 40f 40f
3:24 2
mph
1012.5mb 40f 40f
3:18 2
mph
1012.6mb 40f 40f
3:12 2
mph
1012.6mb 40f 40f
3:06 2
mph
1012.7mb 40f 40f
3:00 2 3 mph 1012.8mb 40f 40f
2:54 3 5 mph 1012.9mb 40f 40f
2:48 5
mph
1013mb 40f 40f
2:42 5
mph
1013.1mb 40f 40f
2:36 5 6 mph 1013.1mb 40f 40f
2:30 5
mph
1013.1mb 40f 40f
2:24 3
mph
1013.1mb 40f 40f
2:18 2 3 mph 1013.2mb 40f 40f
2:12 3
mph
1013.3mb 40f 40f
2:06 3
mph
1013.3mb 40f 40f
2:00 3
mph
1013.3mb 40f 40f
1:54 2 3 mph 1013.2mb 40f 40f
1:48 3
mph
1013.2mb 40f 40f
1:42 2 3 mph 1013.1mb 40f 40f
1:36 3 5 mph 1013.1mb 40f 40f
1:30 3 5 mph 1013.1mb 40f 40f
1:24 5
mph
1013.1mb 40f 40f
1:18 3 5 mph 1013.1mb 40f 40f
1:12 5 6 mph 1013.1mb 40f 40f
1:06 5 6 mph 1013.1mb 40f 40f
1:00 3 5 mph - - -
12:54 3 5 mph 1013.1mb 40f 40f
12:48 3 5 mph 1013.2mb 40f 40f
12:42 3
mph
1013.3mb 40f -
12:36 3
mph
1013.3mb 40f -
12:30 3 5 mph - - -
12:24 3
mph
1013.4mb 39f 40f
12:18 2 3 mph 1013.4mb 39f 40f
12:12 3
mph
1013.4mb 39f 40f
12:06 3
mph
1013.5mb 39f 40f
12:00 3
mph
1013.5mb 39f 40f
Sex 01/20 11:54 2 3 mph 1013.6mb 39f 40f
11:48 3
mph
1013.6mb 39f 40f
11:42 3
mph
1013.6mb 39f 40f
11:36 2
mph
1013.7mb 39f 40f
11:30 2
mph
1013.8mb 39f 40f
11:24 1 2 mph 1013.8mb 39f 40f
11:18 2
mph
1013.8mb 39f 40f
11:12 2
mph
1013.9mb 39f 39f
11:06  -  2 mph 1014mb 39f 40f
11:00  -  2 mph 1014.1mb 39f 40f
10:54 1 2 mph 1014.1mb 40f 40f
10:48  -  mph - - -
10:42  -  mph 1014.1mb 40f 40f
10:36  -  mph 1014.2mb 40f 40f
10:30  -  1 mph 1014.2mb 40f 40f
10:24 1 2 mph 1014.2mb 40f 40f
10:18 2
mph
1014.2mb 40f 40f
10:12 1
mph
1014.2mb 40f 40f
10:06  -  1 mph 1014.2mb 40f 40f
10:00  -  mph 1014.2mb - -
9:54  -  mph 1014.3mb 40f 40f
9:48  -  1 mph 1014.2mb 40f 40f
9:42  -  mph 1014.2mb 40f 40f
9:36  -  1 mph 1014.3mb 40f 40f
9:30  -  1 mph 1014.3mb - -
9:24 1 3 mph 1014.4mb 40f 40f
9:18 3
mph
- - -
9:12 2
mph
1014.3mb 40f 40f
9:06 2 5 mph 1014.4mb 40f 40f
9:00 5
mph
1014.4mb 40f 40f
8:54 5
mph
1014.4mb 40f 40f
8:48 3
mph
1014.4mb - -
8:42 2 3 mph 1014.4mb 40f 40f
8:36 2 3 mph 1014.5mb 40f 40f
8:30 3 5 mph 1014.5mb 40f 40f
8:24 3 5 mph 1014.5mb 40f 40f
8:18 3 5 mph 1014.5mb 40f 40f
8:12 5 6 mph 1014.5mb 40f 40f
8:06 5
mph
1014.5mb 40f 40f
8:00 2 3 mph 1014.5mb 40f 40f
7:54 3 5 mph 1014.6mb 40f 40f
7:48 3 5 mph - - -
7:42 5 6 mph - 40f 40f
7:36 5 6 mph - 40f 40f
7:30 5 6 mph 1014.8mb 40f 40f
7:24 6 7 mph 1014.9mb 40f 40f
7:18 6 7 mph - - -
7:12 6 7 mph 1014.7mb 40f 40f
7:06 6 7 mph 1014.8mb 40f 40f
7:00 7
mph
1014.9mb 40f 40f
6:54 6 7 mph 1014.9mb 40f 40f
6:48 7 8 mph 1014.9mb 40f 40f
6:42 6 7 mph 1014.9mb 40f 40f
6:36 6 7 mph 1014.9mb 40f 40f
6:30 5 6 mph 1014.9mb 40f 40f
6:24 5
mph
1015mb 40f 40f
6:18 3 6 mph - - -
6:12 5 6 mph 1014.9mb 40f 40f
6:06 2 3 mph 1014.8mb 40f 40f
6:00 3
mph
1014.9mb 40f 40f
5:54 3
mph
1014.9mb 40f 40f
5:48 3 6 mph 1014.8mb - -
5:42 6 8 mph 1014.8mb 40f 40f
5:36 7 8 mph 1014.7mb 40f 40f
5:30 8 9 mph 1014.7mb 40f 40f
5:24 8 9 mph 1014.7mb 40f 40f
5:18 7 9 mph 1014.7mb 40f 40f
5:12 8 9 mph 1014.6mb 40f 40f
5:06 8 9 mph 1014.6mb 39f 40f
5:00 8 9 mph 1014.5mb 39f 40f
4:54 8 9 mph 1014.5mb 40f 40f
4:48 8 9 mph 1014.4mb - -
4:42 7 8 mph 1014.3mb 40f 40f
4:36 7
mph
1014.2mb 40f 40f
4:30 7 8 mph 1014.2mb 40f 40f
4:24 7 9 mph 1014.2mb 40f 40f
4:18 8
mph
1014.2mb 40f 40f
4:12 8 9 mph 1014.2mb 40f 40f
4:06 8 9 mph 1014.2mb 40f 40f
4:00 7 10 mph - - -
3:54 9 10 mph 1014.2mb 40f 40f
3:48 8 10 mph 1014.2mb 40f 40f
3:42 9 10 mph 1014.2mb 40f 40f
3:36 9 11 mph 1014.2mb 40f 40f
3:30 9 11 mph 1014.4mb 40f 40f
3:24 7 11 mph 1014.5mb 39f 40f
3:18 7
mph
1014.5mb 39f 40f
3:12 7 10 mph 1014.5mb 39f 40f
3:06 8 10 mph 1014.5mb 39f 40f
3:00 9 10 mph 1014.5mb 39f 40f
2:54 9 11 mph 1014.5mb 39f 41f
2:48 10 11 mph 1014.6mb 39f 41f
2:42 7 8 mph 1014.7mb 39f 41f
2:36 8 9 mph 1014.7mb 39f 41f
2:30 9 10 mph 1014.8mb 39f 41f
2:24 6 8 mph 1014.8mb 39f 41f
2:18 6 7 mph 1014.9mb 39f 41f
2:12 2 5 mph 1014.9mb 39f 41f
2:06 5
mph
1014.9mb 39f 41f
2:00 5 7 mph 1015mb 39f 41f
1:54 7 8 mph 1015.2mb 39f 41f
1:48 8 9 mph 1015.2mb 39f 40f
1:42 7 8 mph 1015.2mb 39f 40f
1:36 7 8 mph 1015.3mb 39f 40f
1:30 7 8 mph 1015.4mb 39f 40f
1:24 6 8 mph 1015.4mb 39f 40f
1:18 2
mph
1015.4mb 39f 40f
1:12 2 3 mph 1015.4mb 39f 39f
1:06 2 3 mph 1015.5mb 39f 39f
1:00 3 5 mph 1015.5mb 39f 39f
12:54 5 6 mph 1015.6mb 39f 39f
12:48 5 6 mph 1015.5mb 39f 39f
12:42 5 6 mph 1015.5mb 39f 39f
12:36 6
mph
1015.5mb 39f 39f
12:30 6
mph
1015.6mb 39f 38f
12:24 6 7 mph 1015.6mb 39f 38f
12:18 6
mph
1015.6mb 39f 38f
12:12 3 5 mph 1015.8mb 39f 38f
12:06 3 5 mph 1015.9mb 39f 38f
12:00 3
mph
1016mb 39f 38f
11:54 3
mph
1016mb 39f 38f
11:48 2 5 mph 1016.2mb 39f 38f
11:42 3 5 mph 1016.2mb 39f 38f
11:36 3
mph
1016.4mb 39f 38f
11:30 3 5 mph 1016.5mb 39f 38f
11:24 3
mph
1016.7mb 39f 38f
11:18 3
mph
1016.9mb 39f 38f
11:12 3
mph
1016.9mb 39f 38f
11:06 3 5 mph 1017mb 39f 38f
11:00 5
mph
1017.1mb 39f 38f
10:54 3 5 mph 1017.2mb 39f 38f
10:48 5 6 mph 1017.2mb 39f 37f
10:42 6
mph
1017.2mb 39f 37f
10:36 6
mph
1017.2mb 39f 37f
10:30 5
mph
1017.3mb 39f 37f
10:24 3 6 mph 1017.5mb 39f 37f
10:18 3 5 mph 1017.4mb 39f 37f
10:12 5 6 mph 1017.6mb 39f 36f
10:06 5 6 mph 1017.6mb 39f 36f
10:00 5 6 mph 1017.6mb 39f 36f
9:54 5 6 mph 1017.7mb 39f 36f
9:48 5 6 mph 1017.7mb 39f 36f
9:42 6 7 mph 1017.6mb 39f 36f
9:36 7 8 mph 1017.5mb 39f 36f
9:30 7 8 mph 1017.5mb 39f 36f
9:24 7 8 mph 1017.5mb 39f 36f
9:18 7 8 mph 1017.5mb 39f 36f
9:12 7 8 mph 1017.5mb 39f 36f
9:06 6 8 mph 1017.4mb 39f 36f